Location: Ferchesar
(52.6477°N, 12.4298°E)
Time: 10:15:19
(UTC+01:00)

Tiros 1 despin weight - Pass Details

Date: 15 December 2021
Orbit: 592 x 641 km, 48.2° (Epoch: 19 January)

Event Time Altitude Azimuth Distance (km) Brightness Sun altitude
Rises 14:16:13 0° 275° (W) 2,845 ? 8.9°
Reaches altitude 10° 14:18:56 10° 259° (W) 1,933 ? 8.7°
Maximum altitude 14:22:15 21° 210° (SSW) 1,345 ? 8.4°
Drops below altitude 10° 14:25:34 10° 161° (SSE) 1,917 ? 8.2°
Sets 14:28:15 0° 146° (SE) 2,814 ? 8.0°
